This demonstration page uses our WeatherBlox Daily Observations layout. Learn more.

Left ArrowRight Arrow

34.16533, -84.80231

Hourly Observations for March 5, 2022

Temp ( °F °C ) Dew Point ( °F °C ) Humidity (%) Winds ( mph kmh ) Pressure ( in mb ) Visibility ( mi km ) Precip ( " mm )
12:15 am 00:15 Cloudy 61 16 43 6 52 52 E 7 11 30.29 1026 10 16 0.00 0.00
12:35 am 00:35 Cloudy 59 15 43 6 55 55 E 6 9 30.30 1026 10 16 0.00 0.00
12:55 am 00:55 Mostly Cloudy 59 15 43 6 55 55 E 7 11 30.30 1026 10 16 0.00 0.00
1:15 am 01:15 Mostly Cloudy 59 15 41 5 51 51 VRB 6 9 30.30 1026 10 16 0.00 0.00
1:35 am 01:35 Cloudy 59 15 41 5 51 51 VRB 7 11 30.31 1026 10 16 0.00 0.00
1:55 am 01:55 Cloudy 59 15 41 5 51 51 E 6 9 30.31 1026 10 16 0.00 0.00
2:15 am 02:15 Cloudy 59 15 41 5 51 51 E 7 11 30.30 1026 10 16 0.00 0.00
2:35 am 02:35 Cloudy 57 14 41 5 55 55 ESE 7 11 30.30 1026 10 16 0.00 0.00
2:55 am 02:55 Cloudy 57 14 41 5 55 55 E 6 9 30.30 1026 10 16 0.00 0.00
3:15 am 03:15 Cloudy 57 14 41 5 55 55 E 7 11 30.30 1026 10 16 0.00 0.00
3:35 am 03:35 Cloudy 57 14 43 6 59 59 ESE 7 11 30.30 1026 10 16 0.00 0.00
3:55 am 03:55 Cloudy 55 13 43 6 63 63 E 7 11 30.30 1026 10 16 0.00 0.00
4:15 am 04:15 Cloudy 55 13 43 6 63 63 E 7 11 30.30 1026 10 16 0.00 0.00
4:35 am 04:35 Mostly Cloudy 54 12 43 6 67 67 ENE 3 6 30.30 1026 10 16 0.00 0.00
4:55 am 04:55 Cloudy 54 12 43 6 67 67 ENE 5 7 30.32 1027 10 16 0.00 0.00
5:15 am 05:15 Cloudy 54 12 43 6 67 67 E 7 11 30.32 1027 10 16 0.00 0.00
5:35 am 05:35 Cloudy 54 12 43 6 67 67 E 6 9 30.32 1027 10 16 0.00 0.00
5:55 am 05:55 Cloudy 54 12 45 7 72 72 E 8 13 30.31 1027 10 16 0.00 0.00
6:15 am 06:15 Cloudy 54 12 45 7 72 72 VRB 6 9 30.32 1027 10 16 0.00 0.00
6:35 am 06:35 Cloudy 52 11 45 7 77 77 ENE 3 6 30.34 1027 10 16 0.00 0.00
6:55 am 06:55 Cloudy 52 11 45 7 77 77 E 6 9 30.34 1027 10 16 0.00 0.00
7:15 am 07:15 Mostly Cloudy 52 11 46 8 82 82 E 5 7 30.35 1028 10 16 0.00 0.00
7:35 am 07:35 Mostly Sunny 54 12 46 8 77 77 E 7 11 30.35 1028 10 16 0.00 0.00
7:55 am 07:55 Mostly Sunny 54 12 46 8 77 77 E 7 11 30.35 1028 10 16 0.00 0.00
8:15 am 08:15 Sunny 54 12 48 9 82 82 E 10 17 30.36 1028 10 16 0.00 0.00
8:35 am 08:35 Sunny 55 13 48 9 77 77 E 10 17 30.37 1028 10 16 0.00 0.00
8:55 am 08:55 Sunny 55 13 48 9 77 77 E 8 13 30.37 1028 10 16 0.00 0.00
9:15 am 09:15 Sunny 57 14 48 9 72 72 E 10 17 30.37 1028 10 16 0.00 0.00
9:35 am 09:35 Sunny 57 14 50 10 77 77 E 9 15 30.38 1029 10 16 0.00 0.00
9:55 am 09:55 Sunny 59 15 50 10 72 72 ESE 8 13 30.38 1029 10 16 0.00 0.00
10:15 am 10:15 Sunny 59 15 50 10 72 72 E 9 15 30.38 1029 10 16 0.00 0.00
10:35 am 10:35 Sunny 61 16 50 10 68 68 E 9 15 30.36 1028 10 16 0.00 0.00
10:55 am 10:55 Sunny 63 17 50 10 64 64 VRB 6 9 30.36 1028 10 16 0.00 0.00
11:15 am 11:15 Sunny 64 18 50 10 60 60 SE 9 15 30.36 1028 10 16 0.00 0.00
11:35 am 11:35 Sunny 66 19 50 10 56 56 SE 8 13 30.34 1028 10 16 0.00 0.00
11:55 am 11:55 Sunny 68 20 50 10 53 53 VRB 6 9 30.33 1027 10 16 0.00 0.00
12:15 pm 12:15 Sunny 70 21 50 10 50 50 SSE 10 17 30.32 1027 10 16 0.00 0.00
12:35 pm 12:35 Sunny 70 21 50 10 50 50 VRB 7 11 30.31 1026 10 16 0.00 0.00
1:15 pm 13:15 Sunny 73 23 48 9 41 41 S 15 24 30.27 1025 10 16 0.00 0.00
1:35 pm 13:35 Sunny 73 23 48 9 41 41 SSE 9 15 30.26 1025 10 16 0.00 0.00
1:55 pm 13:55 Sunny 75 24 50 10 41 41 SE 12 19 30.25 1024 10 16 0.00 0.00
2:15 pm 14:15 Sunny 75 24 50 10 41 41 SSE 7 11 30.24 1024 10 16 0.00 0.00
2:35 pm 14:35 Mostly Sunny 77 25 50 10 39 39 ESE 8 13 30.23 1024 10 16 0.00 0.00
2:55 pm 14:55 Mostly Sunny 77 25 50 10 39 39 SE 12 19 30.21 1023 10 16 0.00 0.00
3:15 pm 15:15 Sunny 77 25 48 9 36 36 SSE 9 15 30.20 1023 10 16 0.00 0.00
3:35 pm 15:35 Sunny 79 26 45 7 30 30 S 13 20 30.20 1023 10 16 0.00 0.00
3:55 pm 15:55 Sunny 79 26 43 6 28 28 SSE 15 24 30.19 1022 10 16 0.00 0.00
4:15 pm 16:15 Sunny 79 26 41 5 26 26 S 13 20 30.18 1022 10 16 0.00 0.00
4:35 pm 16:35 Sunny 79 26 41 5 26 26 SSE 14 22 30.18 1022 10 16 0.00 0.00
4:55 pm 16:55 Sunny 79 26 41 5 26 26 S 15 24 30.18 1022 10 16 0.00 0.00
5:15 pm 17:15 Sunny 79 26 43 6 28 28 SSE 12 19 30.18 1022 10 16 0.00 0.00
5:35 pm 17:35 Sunny 77 25 43 6 30 30 S 12 19 30.18 1022 10 16 0.00 0.00
5:55 pm 17:55 Sunny 77 25 43 6 30 30 S 10 17 30.18 1022 10 16 0.00 0.00
6:15 pm 18:15 Sunny 75 24 43 6 31 31 S 9 15 30.18 1022 10 16 0.00 0.00
6:35 pm 18:35 Sunny 73 23 45 7 36 36 S 7 11 30.19 1022 10 16 0.00 0.00
6:55 pm 18:55 Clear 72 22 45 7 38 38 SSE 7 11 30.20 1023 10 16 0.00 0.00
7:15 pm 19:15 Clear 72 22 45 7 38 38 SE 6 9 30.21 1023 10 16 0.00 0.00
7:35 pm 19:35 Mostly Clear 70 21 45 7 40 40 SE 5 7 30.22 1023 10 16 0.00 0.00
7:55 pm 19:55 Clear 70 21 45 7 40 40 SE 6 9 30.22 1023 10 16 0.00 0.00
8:15 pm 20:15 Clear 68 20 45 7 43 43 SE 6 9 30.23 1024 10 16 0.00 0.00
8:35 pm 20:35 Partly Cloudy 68 20 45 7 43 43 SE 3 6 30.23 1024 10 16 0.00 0.00
8:55 pm 20:55 Mostly Cloudy 66 19 45 7 46 46 SE 6 9 30.24 1024 10 16 0.00 0.00
9:15 pm 21:15 Cloudy 68 20 46 8 46 46 SE 6 9 30.24 1024 10 16 0.00 0.00
9:35 pm 21:35 Cloudy 66 19 46 8 49 49 SE 7 11 30.24 1024 10 16 0.00 0.00
9:55 pm 21:55 Cloudy 66 19 46 8 49 49 SE 6 9 30.24 1024 10 16 0.00 0.00
10:15 pm 22:15 Cloudy 66 19 48 9 52 52 SE 6 9 30.24 1024 10 16 0.00 0.00
10:35 pm 22:35 Mostly Cloudy 64 18 48 9 56 56 ESE 3 6 30.26 1025 10 16 0.00 0.00
10:55 pm 22:55 Mostly Cloudy 64 18 48 9 56 56 SE 5 7 30.26 1025 10 16 0.00 0.00
11:15 pm 23:15 Mostly Cloudy 64 18 50 10 60 60 SE 6 9 30.26 1025 10 16 0.00 0.00
11:35 pm 23:35 Cloudy 64 18 50 10 60 60 SE 7 11 30.26 1025 10 16 0.00 0.00
11:55 pm 23:55 Cloudy 64 18 50 10 60 60 SE 8 13 30.26 1025 10 16 0.00 0.00

Powered by AerisWeather